Location: Santa Giusta
(39.8800°N, 8.6069°E)
Time: 16:50:54
(UTC+00:00)

MOS 1-B - Pass Details

Date: 02 February 2023
Orbit: 904 x 913 km, 99.4° (Epoch: 01 April)

Event Time Altitude Azimuth Distance (km) Brightness Sun altitude
Rises 18:06:25 0° 156° (SSE) 3,523 7.3 -15.7°
Reaches altitude 10° 18:08:49 10° 154° (SSE) 2,587 6.6 -16.2°
Maximum altitude 18:14:32 69° 72° (ENE) 975 4.3 -17.3°
Drops below altitude 10° 18:20:19 10° 351° (N) 2,609 6.8 -18.4°
Sets 18:22:45 0° 349° (N) 3,555 7.5 -18.8°
